{"data":{"norad_id":55605,"intl_designator":"2023-020AN","name":"STARLINK-5725","alt_names":[],"object_type":"PAYLOAD","status":"ACTIVE","operator":null,"country":"US","launch_date":"2023-02-12","launch_site_code":"AFETR","launch_vehicle":null,"mission":null,"orbit_class":"UNKNOWN","rcs_meters":null,"size_class":null,"mass_kg":null,"dimensions":null,"purposes":["comms"],"wikipedia_slug":null,"has_3d_model":false,"image_url":null,"decayed_at":null,"tle_current":{"epoch":"2026-05-25T02:01:14.366784Z","epoch_age_seconds":61717,"freshness":"FRESH","line1":"1 55605U 23020AN  26145.08419406  .00000123  00000+0  13977-4 0  9994","line2":"2 55605  43.0016 282.7283 0000972 274.1892  85.8849 15.27575730180722","mean_motion":15.2757573,"eccentricity":9.72e-5,"inclination_deg":43.0016,"raan_deg":282.7283,"arg_perigee_deg":274.1892,"mean_anomaly_deg":85.8849,"bstar":1.3977e-5,"rev_number":18072,"period_min":94.267012215493,"perigee_km":482.39497345423,"apogee_km":483.72879051689,"semimajor_km":6861.1988819856,"source":"CELESTRAK","updated_at":"2026-05-25T13:38:17.842376Z"}}}